Time,TemperatureF,DewpointF,PressureIn,WindDirection,WindDirectionDegrees,WindSpeedMPH,WindSpeedGustMPH,Humidity,HourlyPrecipIn,Conditions,Clouds,dailyrainin,SoftwareType,DateUTC
2013-01-22 00:02:00,48.0,15.0,-100.00,SSE,163,4.0,7.0,26,0.00,,,0.00,,2013-01-22 08:02:00,
2013-01-22 00:11:00,48.0,15.0,-100.00,SSE,163,4.0,7.0,26,0.00,,,0.00,,2013-01-22 08:11:00,
2013-01-22 00:43:00,46.0,12.0,-100.00,SSE,164,4.0,6.0,25,0.00,,,0.00,,2013-01-22 08:43:00,
2013-01-22 00:52:00,46.0,12.0,-100.00,SSE,164,4.0,6.0,25,0.00,,,0.00,,2013-01-22 08:52:00,
2013-01-22 01:02:00,46.0,12.0,-100.00,SSE,164,4.0,6.0,25,0.00,,,0.00,,2013-01-22 09:02:00,
2013-01-22 01:11:00,46.0,12.0,-100.00,SSE,164,4.0,6.0,25,0.00,,,0.00,,2013-01-22 09:11:00,
2013-01-22 01:33:00,46.0,11.0,-100.00,SSE,158,5.0,7.0,24,0.00,,,-99.99,,2013-01-22 09:33:00,
2013-01-22 01:43:00,46.0,11.0,-100.00,SSE,158,5.0,7.0,24,0.00,,,-99.99,,2013-01-22 09:43:00,
2013-01-22 01:52:00,46.0,11.0,-100.00,SSE,158,5.0,7.0,24,0.00,,,-99.99,,2013-01-22 09:52:00,
2013-01-22 02:02:00,46.0,11.0,-100.00,SSE,158,5.0,7.0,24,0.00,,,-99.99,,2013-01-22 10:02:00,
2013-01-22 02:11:00,46.0,11.0,-100.00,SSE,158,5.0,7.0,24,0.00,,,-99.99,,2013-01-22 10:11:00,
2013-01-22 02:42:00,46.0,11.0,-100.00,SSE,159,5.0,8.0,24,0.00,,,-99.99,,2013-01-22 10:42:00,
2013-01-22 02:52:00,46.0,11.0,-100.00,SSE,159,5.0,8.0,24,0.00,,,-99.99,,2013-01-22 10:52:00,
2013-01-22 03:02:00,46.0,11.0,-100.00,SSE,159,5.0,8.0,24,0.00,,,-99.99,,2013-01-22 11:02:00,
2013-01-22 03:12:00,46.0,11.0,-100.00,SSE,159,5.0,8.0,24,0.00,,,-99.99,,2013-01-22 11:12:00,
2013-01-22 03:33:00,45.0,9.0,-100.00,SSE,163,6.0,8.0,23,0.00,,,0.00,,2013-01-22 11:33:00,
2013-01-22 03:43:00,45.0,9.0,-100.00,SSE,163,6.0,8.0,23,0.00,,,0.00,,2013-01-22 11:43:00,
2013-01-22 03:53:00,45.0,9.0,-100.00,SSE,163,6.0,8.0,23,0.00,,,0.00,,2013-01-22 11:53:00,
2013-01-22 04:03:00,45.0,9.0,-100.00,SSE,163,6.0,8.0,23,0.00,,,0.00,,2013-01-22 12:03:00,
2013-01-22 04:12:00,45.0,9.0,-100.00,SSE,163,6.0,8.0,23,0.00,,,0.00,,2013-01-22 12:12:00,
2013-01-22 04:43:00,45.0,10.0,-100.00,South,169,5.0,7.0,24,0.00,,,-99.99,,2013-01-22 12:43:00,
2013-01-22 04:53:00,45.0,10.0,-100.00,South,169,5.0,7.0,24,0.00,,,-99.99,,2013-01-22 12:53:00,
2013-01-22 05:03:00,45.0,10.0,-100.00,South,169,5.0,7.0,24,0.00,,,-99.99,,2013-01-22 13:03:00,
2013-01-22 05:12:00,45.0,10.0,-100.00,South,169,5.0,7.0,24,0.00,,,-99.99,,2013-01-22 13:12:00,
2013-01-22 05:33:00,45.0,11.0,-100.00,SSE,158,5.0,7.0,25,0.00,,,0.00,,2013-01-22 13:33:00,
2013-01-22 05:43:00,45.0,11.0,-100.00,SSE,158,5.0,7.0,25,0.00,,,0.00,,2013-01-22 13:43:00,
2013-01-22 05:53:00,45.0,11.0,-100.00,SSE,158,5.0,7.0,25,0.00,,,0.00,,2013-01-22 13:53:00,
2013-01-22 06:02:00,45.0,11.0,-100.00,SSE,158,5.0,7.0,25,0.00,,,0.00,,2013-01-22 14:02:00,
2013-01-22 06:12:00,45.0,11.0,-100.00,SSE,158,5.0,7.0,25,0.00,,,0.00,,2013-01-22 14:12:00,
2013-01-22 06:44:00,44.0,10.0,-100.00,SSE,160,5.0,7.0,24,0.00,,,0.00,,2013-01-22 14:44:00,
2013-01-22 06:53:00,44.0,10.0,-100.00,SSE,160,5.0,7.0,24,0.00,,,0.00,,2013-01-22 14:53:00,
2013-01-22 07:03:00,44.0,10.0,-100.00,SSE,160,5.0,7.0,24,0.00,,,0.00,,2013-01-22 15:03:00,
2013-01-22 07:12:00,44.0,10.0,-100.00,SSE,160,5.0,7.0,24,0.00,,,0.00,,2013-01-22 15:12:00,
2013-01-22 07:44:00,44.0,10.0,-100.00,SSE,167,4.0,7.0,25,0.00,,,0.00,,2013-01-22 15:44:00,
2013-01-22 07:53:00,44.0,10.0,-100.00,SSE,167,4.0,7.0,25,0.00,,,0.00,,2013-01-22 15:53:00,
2013-01-22 08:03:00,44.0,10.0,-100.00,SSE,167,4.0,7.0,25,0.00,,,0.00,,2013-01-22 16:03:00,
2013-01-22 08:12:00,44.0,10.0,-100.00,SSE,167,4.0,7.0,25,0.00,,,0.00,,2013-01-22 16:12:00,
2013-01-22 08:43:00,44.0,11.0,-100.00,SSE,160,5.0,7.0,26,0.00,,,0.00,,2013-01-22 16:43:00,
2013-01-22 08:54:00,44.0,11.0,-100.00,SSE,160,5.0,7.0,26,0.00,,,0.00,,2013-01-22 16:54:00,
2013-01-22 09:03:00,44.0,11.0,-100.00,SSE,160,5.0,7.0,26,0.00,,,0.00,,2013-01-22 17:03:00,
2013-01-22 09:12:00,44.0,11.0,-100.00,SSE,160,5.0,7.0,26,0.00,,,0.00,,2013-01-22 17:12:00,
2013-01-22 09:44:00,51.0,16.0,-100.00,SSE,151,3.0,6.0,25,0.00,,,0.00,,2013-01-22 17:44:00,
2013-01-22 09:53:00,51.0,16.0,-100.00,SSE,151,3.0,6.0,25,0.00,,,0.00,,2013-01-22 17:53:00,
2013-01-22 10:03:00,51.0,16.0,-100.00,SSE,151,3.0,6.0,25,0.00,,,0.00,,2013-01-22 18:03:00,
2013-01-22 10:12:00,51.0,16.0,-100.00,SSE,151,3.0,6.0,25,0.00,,,0.00,,2013-01-22 18:12:00,
2013-01-22 10:34:00,58.0,15.0,-100.00,South,188,2.0,5.0,18,0.00,,,0.00,,2013-01-22 18:34:00,
2013-01-22 10:43:00,58.0,15.0,-100.00,South,188,2.0,5.0,18,0.00,,,0.00,,2013-01-22 18:43:00,
2013-01-22 10:53:00,58.0,15.0,-100.00,South,188,2.0,5.0,18,0.00,,,0.00,,2013-01-22 18:53:00,
2013-01-22 11:03:00,58.0,15.0,-100.00,South,188,2.0,5.0,18,0.00,,,0.00,,2013-01-22 19:03:00,
2013-01-22 11:12:00,58.0,15.0,-100.00,South,188,2.0,5.0,18,0.00,,,0.00,,2013-01-22 19:12:00,
2013-01-22 11:43:00,61.0,11.0,-100.00,NNW,348,2.0,6.0,14,0.00,,,0.00,,2013-01-22 19:43:00,
2013-01-22 11:54:00,61.0,11.0,-100.00,NNW,348,2.0,6.0,14,0.00,,,0.00,,2013-01-22 19:54:00,
2013-01-22 12:03:00,61.0,11.0,-100.00,NNW,348,2.0,6.0,14,0.00,,,0.00,,2013-01-22 20:03:00,
2013-01-22 12:12:00,61.0,11.0,-100.00,NNW,348,2.0,6.0,14,0.00,,,0.00,,2013-01-22 20:12:00,
2013-01-22 12:43:00,66.0,14.0,-100.00,NNW,332,3.0,9.0,13,0.00,,,0.00,,2013-01-22 20:43:00,
2013-01-22 12:53:00,66.0,14.0,-100.00,NNW,332,3.0,9.0,13,0.00,,,0.00,,2013-01-22 20:53:00,
2013-01-22 13:03:00,66.0,14.0,-100.00,NNW,332,3.0,9.0,13,0.00,,,0.00,,2013-01-22 21:03:00,
2013-01-22 13:12:00,66.0,14.0,-100.00,NNW,332,3.0,9.0,13,0.00,,,0.00,,2013-01-22 21:12:00,
2013-01-22 13:43:00,70.0,6.0,-100.00,SE,125,6.0,12.0,8,0.00,,,0.00,,2013-01-22 21:43:00,
2013-01-22 13:53:00,70.0,6.0,-100.00,SE,125,6.0,12.0,8,0.00,,,0.00,,2013-01-22 21:53:00,
2013-01-22 14:02:00,70.0,6.0,-100.00,SE,125,6.0,12.0,8,0.00,,,0.00,,2013-01-22 22:02:00,
2013-01-22 14:43:00,70.0,0.0,-100.00,ENE,71,6.0,14.0,6,0.00,,,0.00,,2013-01-22 22:43:00,
2013-01-22 14:53:00,70.0,0.0,-100.00,ENE,71,6.0,14.0,6,0.00,,,0.00,,2013-01-22 22:53:00,
2013-01-22 15:02:00,70.0,0.0,-100.00,ENE,71,6.0,14.0,6,0.00,,,0.00,,2013-01-22 23:02:00,
2013-01-22 15:43:00,70.0,6.0,-100.00,West,272,5.0,11.0,8,0.00,,,0.00,,2013-01-22 23:43:00,
2013-01-22 15:53:00,70.0,6.0,-100.00,West,272,5.0,11.0,8,0.00,,,0.00,,2013-01-22 23:53:00,
2013-01-22 16:02:00,70.0,6.0,-100.00,West,272,5.0,11.0,8,0.00,,,0.00,,2013-01-23 00:02:00,
2013-01-22 16:43:00,65.0,5.0,-100.00,South,177,3.0,7.0,9,0.00,,,0.00,,2013-01-23 00:43:00,
2013-01-22 16:52:00,65.0,5.0,-100.00,South,177,3.0,7.0,9,0.00,,,0.00,,2013-01-23 00:52:00,
2013-01-22 17:02:00,65.0,5.0,-100.00,South,177,3.0,7.0,9,0.00,,,0.00,,2013-01-23 01:02:00,
2013-01-22 17:12:00,65.0,5.0,-100.00,South,177,3.0,7.0,9,0.00,,,0.00,,2013-01-23 01:12:00,
2013-01-22 17:43:00,58.0,6.0,-100.00,South,171,6.0,8.0,12,0.00,,,0.00,,2013-01-23 01:43:00,
2013-01-22 17:53:00,58.0,6.0,-100.00,South,171,6.0,8.0,12,0.00,,,0.00,,2013-01-23 01:53:00,
2013-01-22 18:03:00,58.0,6.0,-100.00,South,171,6.0,8.0,12,0.00,,,0.00,,2013-01-23 02:03:00,
2013-01-22 18:12:00,58.0,6.0,-100.00,South,171,6.0,8.0,12,0.00,,,0.00,,2013-01-23 02:12:00,
2013-01-22 18:43:00,57.0,3.0,-100.00,South,172,4.0,9.0,11,0.00,,,0.00,,2013-01-23 02:43:00,
2013-01-22 18:53:00,57.0,3.0,-100.00,South,172,4.0,9.0,11,0.00,,,0.00,,2013-01-23 02:53:00,
2013-01-22 19:03:00,57.0,3.0,-100.00,South,172,4.0,9.0,11,0.00,,,0.00,,2013-01-23 03:03:00,
2013-01-22 19:12:00,57.0,3.0,-100.00,South,172,4.0,9.0,11,0.00,,,0.00,,2013-01-23 03:12:00,
2013-01-22 19:33:00,55.0,3.0,-100.00,South,171,4.0,7.0,12,0.00,,,0.00,,2013-01-23 03:33:00,
2013-01-22 19:43:00,55.0,3.0,-100.00,South,171,4.0,7.0,12,0.00,,,0.00,,2013-01-23 03:43:00,
2013-01-22 19:53:00,55.0,3.0,-100.00,South,171,4.0,7.0,12,0.00,,,0.00,,2013-01-23 03:53:00,
2013-01-22 20:03:00,55.0,3.0,-100.00,South,171,4.0,7.0,12,0.00,,,0.00,,2013-01-23 04:03:00,
2013-01-22 20:12:00,55.0,3.0,-100.00,South,171,4.0,7.0,12,0.00,,,0.00,,2013-01-23 04:12:00,
2013-01-22 20:33:00,54.0,6.0,-100.00,SE,128,3.0,7.0,14,0.00,,,0.00,,2013-01-23 04:33:00,
2013-01-22 20:43:00,54.0,6.0,-100.00,SE,128,3.0,7.0,14,0.00,,,0.00,,2013-01-23 04:43:00,
2013-01-22 20:53:00,54.0,6.0,-100.00,SE,128,3.0,7.0,14,0.00,,,0.00,,2013-01-23 04:53:00,
2013-01-22 21:03:00,54.0,6.0,-100.00,SE,128,3.0,7.0,14,0.00,,,0.00,,2013-01-23 05:03:00,
2013-01-22 21:12:00,54.0,6.0,-100.00,SE,128,3.0,7.0,14,0.00,,,0.00,,2013-01-23 05:12:00,
2013-01-22 21:33:00,50.0,7.0,-100.00,South,181,5.0,8.0,17,0.00,,,0.00,,2013-01-23 05:33:00,
2013-01-22 21:43:00,50.0,7.0,-100.00,South,181,5.0,8.0,17,0.00,,,0.00,,2013-01-23 05:43:00,
2013-01-22 21:53:00,50.0,7.0,-100.00,South,181,5.0,8.0,17,0.00,,,0.00,,2013-01-23 05:53:00,
2013-01-22 22:02:00,50.0,7.0,-100.00,South,181,5.0,8.0,17,0.00,,,0.00,,2013-01-23 06:02:00,
2013-01-22 22:12:00,50.0,7.0,-100.00,South,181,5.0,8.0,17,0.00,,,0.00,,2013-01-23 06:12:00,
2013-01-22 22:43:00,49.0,7.0,-100.00,SSE,160,6.0,9.0,18,0.00,,,0.00,,2013-01-23 06:43:00,
2013-01-22 22:53:00,49.0,7.0,-100.00,SSE,160,6.0,9.0,18,0.00,,,0.00,,2013-01-23 06:53:00,
2013-01-22 23:02:00,49.0,7.0,-100.00,SSE,160,6.0,9.0,18,0.00,,,0.00,,2013-01-23 07:02:00,
2013-01-22 23:12:00,49.0,7.0,-100.00,SSE,160,6.0,9.0,18,0.00,,,0.00,,2013-01-23 07:12:00,
2013-01-22 23:33:00,49.0,10.0,-100.00,SSE,156,5.0,8.0,20,0.00,,,0.00,,2013-01-23 07:33:00,
2013-01-22 23:43:00,49.0,10.0,-100.00,SSE,156,5.0,8.0,20,0.00,,,0.00,,2013-01-23 07:43:00,
2013-01-22 23:53:00,49.0,10.0,-100.00,SSE,156,5.0,8.0,20,0.00,,,0.00,,2013-01-23 07:53:00,